Regional Weather Roundup
Issued by NWS

Home | Current Version | Previous Version | Text Only | Print | Product List | Glossary Off
Versions: 1 2 3 4 5 6 7 8 9 10 11 12 13 14 15 16 17 18 19 20 21 22 23 24 25 26 27 28 29 30 31 32 33 34 35 36 37 38 39 40 41 42 43 44 45 46 47 48 49 50

000
ASUS45 KTFX 240810
RWRMT
MONTANA REGIONAL WEATHER ROUNDUP
NATIONAL WEATHER SERVICE GREAT FALLS MT
200 AM MDT SUN MAY 24 2015

NOTE: "FAIR" INDICATES FEW OR NO CLOUDS BELOW 12000 FEET WITH NO
SIGNIFICANT WEATHER AND/OR OBSTRUCTIONS TO VISIBILITY.

MTZ001>007-043-240900-
WEST OF THE DIVIDE

CITY           SKY/WX    TMP DP  RH WIND       PRES   REMARKS
KALISPELL      SUNNY     41  38  89 CALM      30.07F
MISSOULA       CLOUDY    50  45  83 NW5       30.09F
BUTTE          CLOUDY    47  42  83 CALM      30.11S
MULLAN PASS    PTCLDY    46  34  62 CALM      30.13F
DEER LODGE       N/A     48  43  81 NW7       30.14S
EUREKA           N/A     52  36  54 S3        30.07F
HAMILTON         N/A     54  43  66 N5        30.06S
LIBBY            N/A     48  37  66 CALM      30.07R
RONAN            N/A     45  40  82 CALM      30.10F
$$

MTZ008-052>055-240900-
SOUTHWEST MONTANA

CITY           SKY/WX    TMP DP  RH WIND       PRES   REMARKS
BOZEMAN        CLOUDY    48  46  93 SW5       30.07F
DILLON         MOCLDY    46  43  89 SE5       30.07S
W YELLOWSTONE  PTCLDY    36  36 100 CALM      30.06F
THREE FORKS      N/A     48  26  42 CALM      30.06S
TWIN BRIDGES     N/A     49  41  74 N13       30.04S
$$

MTZ009-010-012-014-046-048-049-054-240900-
EAST SLOPES AND CENTRAL MONTANA

CITY           SKY/WX    TMP DP  RH WIND       PRES   REMARKS
CUT BANK       MOCLDY    42  40  92 NW7       30.13S
GREAT FALLS    MOCLDY    47  47 100 SW3       30.10F FOG
MALMSTROM AFB  MOCLDY    49  49 100 CALM      30.11S
HELENA         CLOUDY    51  44  77 W7        30.09F
CONRAD           N/A     48  48 100 CALM      30.14R
$$

MTZ011-013-016-021-045-047-050-051-240900-
NORTH CENTRAL MONTANA

CITY           SKY/WX    TMP DP  RH WIND       PRES   REMARKS
HAVRE          CLEAR     46  41  82 CALM      30.11R
LEWISTOWN      CLEAR     42  39  89 S6        30.11F
N BAR RANCH    CLOUDY    45  43  93 W5        30.12F
CHINOOK          N/A     45  45 100 CALM      30.11S
FORT BENTON      N/A     52  48  87 CALM      30.11F
$$

MTZ017>020-022>027-061-062-240900-
NORTHEAST MONTANA

CITY           SKY/WX    TMP DP  RH WIND       PRES   REMARKS
GLASGOW        CLEAR     47  39  74 NE7       30.09F
JORDAN           N/A     48  44  86 NE5       30.08F
SIDNEY         MOCLDY    52  45  76 CALM      30.09F
WOLF POINT     PTCLDY    45  40  82 CALM      30.10F
MALTA            N/A     45  38  76 CALM      30.06S
PLENTYWOOD       N/A     54  37  54 CALM      30.10F
POPLAR           N/A     48  45  87 CALM      30.10F
SCOBEY           N/A     42  30  62 E1        30.09F
$$

MTZ028>42-056>058-240900-
SOUTHCENTRAL AND SOUTHEAST MONTANA

CITY           SKY/WX    TMP DP  RH WIND       PRES   REMARKS
BAKER          CLOUDY    49  47  93 NE3       30.07F
BILLINGS       CLOUDY    50  45  83 NE8       30.06S
LIVINGSTON     CLOUDY    48  45  89 E6        30.07S
MILES CITY     CLOUDY    52  50  93 NE13      30.05F
BIG TIMBER       N/A     48  46  93 N3        30.09F
EKALAKA          N/A     47  44  89 E3        30.03F
FORSYTH          N/A     52  52 100 NE3       30.05S
LAUREL           N/A     48  41  77 N1        30.04F
ROUNDUP          N/A     48  41  77 CALM      29.99F
$$

REGIONAL REPORTS...DAKOTAS

CITY           SKY/WX    TMP DP  RH WIND       PRES   REMARKS
WILLISTON      MOCLDY    51  43  74 NE3       30.10F
MINOT          PTCLDY    53  45  74 CALM      30.09F
DICKINSON      CLEAR     46  44  93 NE6       30.07S
BEACH          FAIR      45  45 100 CALM      30.10R
CROSBY         FAIR      48  48 100 SW8       30.10F
WATFORD CITY   FAIR      48  45  87 N3        30.08F
BISMARCK       CLOUDY    56  52  86 E5        30.09F
GRAND FORKS    CLEAR     50  44  80 CALM      30.09S
FARGO          CLEAR     51  47  86 CALM      30.10R
BUFFALO SD       N/A     50  48  93 NE8       29.98F
RAPID CITY     LGT RAIN  53  52  96 E8        29.99F FOG
$$

REGIONAL REPORTS...WYOMING/IDAHO/WASHINGTON

CITY           SKY/WX    TMP DP  RH WIND       PRES   REMARKS
GILLETTE       LGT RAIN  50  48  93 N8        29.99F
SHERIDAN       CLOUDY    49  47  93 N6        30.03S
BUFFALO WY     CLOUDY    48  46  93 NW9       30.03S
CODY           CLOUDY    46  41  81 N9        30.04F
YELLOWSTONE LA   N/A     37  33  85 CALM      30.10S
IDAHO FALLS    FOG       43  42  97 CALM      29.98S VSB 1/4
SALMON         CLOUDY    52  48  87 CALM      30.03S
BOISE          MOCLDY    59  51  75 SE10      29.95R
SPOKANE        PTCLDY    62  52  69 SW14      29.99F
$$

REGIONAL REPORTS...ALBERTA

CITY           SKY/WX    TMP DP  RH WIND       PRES   REMARKS
EDMONTON       CLEAR     54  37  54 E6        30.05F
CALGARY        CLEAR     54  32  43 VRB2      30.11S
LETHBRIDGE     CLEAR     43  37  81 SW9       30.12S
MEDICINE HAT   CLEAR     48  37  66 S3        30.11R
$$

REGIONAL REPORTS...SASKATCHEWAN

CITY           SKY/WX    TMP DP  RH WIND       PRES   REMARKS
SWIFT CURRENT  CLEAR     48  32  53 SW12      30.11S
REGINA         CLEAR     52  36  54 NW5       30.09S
SASKATOON      CLEAR     48  37  66 S6        30.08S
$$


USA.gov is the U.S. government's official web portal to all federal, state and local government web resources and services.